Time,TemperatureF,DewpointF,PressureIn,WindDirection,WindDirectionDegrees,WindSpeedMPH,WindSpeedGustMPH,Humidity,HourlyPrecipIn,Conditions,Clouds,dailyrainin,SoftwareType,DateUTC
2013-01-20 00:00:00,64.1,55.6,30.05,North,0,0.0,6.0,74,0.00,,,-99.99,WeatherLink 5.7,2013-01-20 05:00:00,
2013-01-20 00:15:00,63.8,55.7,30.04,North,0,0.0,2.0,75,0.00,,,-99.99,WeatherLink 5.7,2013-01-20 05:15:00,
2013-01-20 00:30:00,63.4,55.7,30.03,North,0,0.0,7.0,76,0.00,,,-99.99,WeatherLink 5.7,2013-01-20 05:30:00,
2013-01-20 00:45:00,63.1,55.4,30.03,North,0,0.0,5.0,76,0.00,,,-99.99,WeatherLink 5.7,2013-01-20 05:45:00,
2013-01-20 01:00:00,62.7,55.4,30.04,North,0,0.0,3.0,77,0.00,,,-99.99,WeatherLink 5.7,2013-01-20 06:00:00,
2013-01-20 01:15:00,62.3,55.4,30.04,North,-999,0.0,0.0,78,0.00,,,-99.99,WeatherLink 5.7,2013-01-20 06:15:00,
2013-01-20 01:30:00,62.2,55.3,30.02,North,0,0.0,4.0,78,0.00,,,-99.99,WeatherLink 5.7,2013-01-20 06:30:00,
2013-01-20 01:45:00,62.1,55.5,30.03,North,-999,0.0,0.0,79,0.00,,,-99.99,WeatherLink 5.7,2013-01-20 06:45:00,
2013-01-20 02:00:00,62.0,55.4,30.03,North,-999,0.0,0.0,79,0.00,,,-99.99,WeatherLink 5.7,2013-01-20 07:00:00,
2013-01-20 02:15:00,61.8,55.2,30.03,North,-999,0.0,0.0,79,0.00,,,-99.99,WeatherLink 5.7,2013-01-20 07:15:00,
2013-01-20 02:30:00,61.6,55.4,30.02,North,0,0.0,4.0,80,0.00,,,-99.99,WeatherLink 5.7,2013-01-20 07:30:00,
2013-01-20 02:45:00,61.4,55.2,30.03,North,0,0.0,5.0,80,0.00,,,-99.99,WeatherLink 5.7,2013-01-20 07:45:00,
2013-01-20 03:00:00,61.2,55.3,30.02,North,-999,0.0,0.0,81,0.00,,,-99.99,WeatherLink 5.7,2013-01-20 08:00:00,
2013-01-20 03:15:00,60.9,55.0,30.03,North,-999,0.0,0.0,81,0.00,,,-99.99,WeatherLink 5.7,2013-01-20 08:15:00,
2013-01-20 03:30:00,60.5,55.0,30.03,North,-999,0.0,0.0,82,0.00,,,-99.99,WeatherLink 5.7,2013-01-20 08:30:00,
2013-01-20 03:45:00,60.2,54.7,30.03,North,-999,0.0,0.0,82,0.00,,,-99.99,WeatherLink 5.7,2013-01-20 08:45:00,
2013-01-20 04:00:00,60.1,54.6,30.03,North,-999,0.0,0.0,82,0.00,,,-99.99,WeatherLink 5.7,2013-01-20 09:00:00,
2013-01-20 04:15:00,60.0,54.8,30.03,North,0,0.0,6.0,83,0.00,,,-99.99,WeatherLink 5.7,2013-01-20 09:15:00,
2013-01-20 04:30:00,59.9,54.7,30.02,North,-999,0.0,0.0,83,0.00,,,-99.99,WeatherLink 5.7,2013-01-20 09:30:00,
2013-01-20 04:45:00,59.8,54.6,30.02,North,-999,0.0,0.0,83,0.00,,,-99.99,WeatherLink 5.7,2013-01-20 09:45:00,
2013-01-20 05:00:00,59.6,54.4,30.03,North,-999,0.0,0.0,83,0.00,,,-99.99,WeatherLink 5.7,2013-01-20 10:00:00,
2013-01-20 05:15:00,59.5,54.7,30.03,North,0,0.0,4.0,84,0.00,,,-99.99,WeatherLink 5.7,2013-01-20 10:15:00,
2013-01-20 05:30:00,59.3,54.5,30.03,North,-999,0.0,0.0,84,0.00,,,-99.99,WeatherLink 5.7,2013-01-20 10:30:00,
2013-01-20 05:45:00,59.3,54.5,30.03,North,0,0.0,5.0,84,0.00,,,-99.99,WeatherLink 5.7,2013-01-20 10:45:00,
2013-01-20 06:00:00,59.3,54.5,30.05,North,0,1.0,7.0,84,0.00,,,-99.99,WeatherLink 5.7,2013-01-20 11:00:00,
2013-01-20 06:15:00,59.3,54.8,30.05,North,0,0.0,4.0,85,0.00,,,-99.99,WeatherLink 5.7,2013-01-20 11:15:00,
2013-01-20 06:30:00,59.3,54.8,30.05,North,0,1.0,7.0,85,0.00,,,-99.99,WeatherLink 5.7,2013-01-20 11:30:00,
2013-01-20 06:45:00,59.3,54.8,30.05,North,0,1.0,10.0,85,0.00,,,-99.99,WeatherLink 5.7,2013-01-20 11:45:00,
2013-01-20 07:00:00,59.5,55.0,30.05,North,0,0.0,5.0,85,0.00,,,-99.99,WeatherLink 5.7,2013-01-20 12:00:00,
2013-01-20 07:15:00,59.6,55.4,30.05,North,0,0.0,5.0,86,0.01,,,-99.99,WeatherLink 5.7,2013-01-20 12:15:00,
2013-01-20 07:30:00,59.8,55.3,30.05,North,0,0.0,9.0,85,0.01,,,-99.99,WeatherLink 5.7,2013-01-20 12:30:00,
2013-01-20 07:45:00,59.9,55.4,30.05,North,0,0.0,5.0,85,0.01,,,-99.99,WeatherLink 5.7,2013-01-20 12:45:00,
2013-01-20 08:00:00,60.1,55.6,30.06,North,0,0.0,3.0,85,0.01,,,-99.99,WeatherLink 5.7,2013-01-20 13:00:00,
2013-01-20 08:15:00,60.3,55.8,30.07,North,0,0.0,5.0,85,0.00,,,-99.99,WeatherLink 5.7,2013-01-20 13:15:00,
2013-01-20 08:30:00,60.6,56.1,30.07,North,0,1.0,6.0,85,0.00,,,-99.99,WeatherLink 5.7,2013-01-20 13:30:00,
2013-01-20 08:45:00,61.0,56.5,30.07,North,0,0.0,5.0,85,0.00,,,-99.99,WeatherLink 5.7,2013-01-20 13:45:00,
2013-01-20 09:00:00,61.5,56.6,30.08,North,0,1.0,6.0,84,0.00,,,-99.99,WeatherLink 5.7,2013-01-20 14:00:00,
2013-01-20 09:15:00,62.0,57.1,30.08,North,0,0.0,7.0,84,0.00,,,-99.99,WeatherLink 5.7,2013-01-20 14:15:00,
2013-01-20 09:30:00,62.4,57.5,30.08,North,0,0.0,1.0,84,0.00,,,-99.99,WeatherLink 5.7,2013-01-20 14:30:00,
2013-01-20 09:45:00,62.9,57.7,30.08,North,0,0.0,8.0,83,0.00,,,-99.99,WeatherLink 5.7,2013-01-20 14:45:00,
2013-01-20 10:00:00,63.7,58.1,30.08,North,0,0.0,3.0,82,0.00,,,-99.99,WeatherLink 5.7,2013-01-20 15:00:00,
2013-01-20 10:15:00,64.6,58.6,30.07,North,0,0.0,6.0,81,0.00,,,-99.99,WeatherLink 5.7,2013-01-20 15:15:00,
2013-01-20 10:30:00,65.8,59.5,30.08,North,0,0.0,5.0,80,0.00,,,-99.99,WeatherLink 5.7,2013-01-20 15:30:00,
2013-01-20 10:45:00,67.0,59.9,30.07,North,0,0.0,5.0,78,0.00,,,-99.99,WeatherLink 5.7,2013-01-20 15:45:00,
2013-01-20 11:00:00,67.5,59.7,30.07,North,0,1.0,9.0,76,0.00,,,-99.99,WeatherLink 5.7,2013-01-20 16:00:00,
2013-01-20 11:15:00,68.1,59.9,30.06,North,0,1.0,7.0,75,0.00,,,-99.99,WeatherLink 5.7,2013-01-20 16:15:00,
2013-01-20 11:30:00,68.4,60.2,30.05,North,0,0.0,4.0,75,0.00,,,-99.99,WeatherLink 5.7,2013-01-20 16:30:00,
2013-01-20 11:45:00,68.8,60.2,30.05,North,0,1.0,10.0,74,0.00,,,-99.99,WeatherLink 5.7,2013-01-20 16:45:00,
2013-01-20 12:00:00,69.1,60.1,30.03,North,0,0.0,6.0,73,0.00,,,-99.99,WeatherLink 5.7,2013-01-20 17:00:00,
2013-01-20 12:15:00,69.5,60.5,30.03,North,0,1.0,7.0,73,0.00,,,-99.99,WeatherLink 5.7,2013-01-20 17:15:00,
2013-01-20 12:30:00,69.5,60.5,30.02,North,0,1.0,8.0,73,0.00,,,-99.99,WeatherLink 5.7,2013-01-20 17:30:00,
2013-01-20 12:45:00,69.6,60.2,30.00,North,0,2.0,9.0,72,0.00,,,-99.99,WeatherLink 5.7,2013-01-20 17:45:00,
2013-01-20 13:00:00,69.8,60.0,30.00,North,0,2.0,7.0,71,0.00,,,-99.99,WeatherLink 5.7,2013-01-20 18:00:00,
2013-01-20 13:15:00,70.1,59.9,29.99,North,0,1.0,7.0,70,0.00,,,-99.99,WeatherLink 5.7,2013-01-20 18:15:00,
2013-01-20 13:30:00,70.5,59.8,29.98,North,0,2.0,11.0,69,0.00,,,-99.99,WeatherLink 5.7,2013-01-20 18:30:00,
2013-01-20 13:45:00,70.9,59.8,29.97,North,0,1.0,11.0,68,0.00,,,-99.99,WeatherLink 5.7,2013-01-20 18:45:00,
2013-01-20 14:00:00,71.4,60.3,29.97,North,0,1.0,8.0,68,0.00,,,-99.99,WeatherLink 5.7,2013-01-20 19:00:00,
2013-01-20 14:15:00,71.5,60.0,29.96,North,0,0.0,9.0,67,0.00,,,-99.99,WeatherLink 5.7,2013-01-20 19:15:00,
2013-01-20 14:30:00,71.6,60.1,29.96,North,-999,0.0,0.0,67,0.00,,,-99.99,WeatherLink 5.7,2013-01-20 19:30:00,
2013-01-20 14:45:00,71.6,60.1,29.96,North,0,1.0,9.0,67,0.00,,,-99.99,WeatherLink 5.7,2013-01-20 19:45:00,
2013-01-20 15:00:00,72.1,60.1,29.96,North,-999,0.0,0.0,66,0.00,,,-99.99,WeatherLink 5.7,2013-01-20 20:00:00,
2013-01-20 15:15:00,72.5,60.5,29.96,North,0,0.0,5.0,66,0.00,,,-99.99,WeatherLink 5.7,2013-01-20 20:15:00,
2013-01-20 15:30:00,72.7,60.7,29.96,North,0,1.0,7.0,66,0.00,,,-99.99,WeatherLink 5.7,2013-01-20 20:30:00,
2013-01-20 15:45:00,72.7,60.7,29.96,North,0,1.0,7.0,66,0.00,,,-99.99,WeatherLink 5.7,2013-01-20 20:45:00,
2013-01-20 16:00:00,72.8,60.3,29.96,North,0,2.0,11.0,65,0.00,,,-99.99,WeatherLink 5.7,2013-01-20 21:00:00,
2013-01-20 16:15:00,72.6,60.2,29.96,North,0,2.0,10.0,65,0.00,,,-99.99,WeatherLink 5.7,2013-01-20 21:15:00,
2013-01-20 16:30:00,72.3,59.9,29.96,North,0,1.0,7.0,65,0.00,,,-99.99,WeatherLink 5.7,2013-01-20 21:30:00,
2013-01-20 16:45:00,71.9,59.9,29.96,North,0,0.0,4.0,66,0.00,,,-99.99,WeatherLink 5.7,2013-01-20 21:45:00,
2013-01-20 17:00:00,71.4,60.3,29.96,North,-999,0.0,0.0,68,0.00,,,-99.99,WeatherLink 5.7,2013-01-20 22:00:00,
2013-01-20 17:15:00,70.6,59.5,29.97,North,0,0.0,5.0,68,0.00,,,-99.99,WeatherLink 5.7,2013-01-20 22:15:00,
2013-01-20 17:30:00,69.7,59.1,29.97,North,-999,0.0,0.0,69,0.00,,,-99.99,WeatherLink 5.7,2013-01-20 22:30:00,
2013-01-20 17:45:00,68.8,58.6,29.97,North,-999,0.0,0.0,70,0.00,,,-99.99,WeatherLink 5.7,2013-01-20 22:45:00,
2013-01-20 18:00:00,67.8,58.1,29.97,North,0,0.0,3.0,71,0.00,,,-99.99,WeatherLink 5.7,2013-01-20 23:00:00,
2013-01-20 18:15:00,66.8,57.1,29.98,North,0,2.0,11.0,71,0.00,,,-99.99,WeatherLink 5.7,2013-01-20 23:15:00,
2013-01-20 18:30:00,65.8,56.1,29.99,North,0,0.0,4.0,71,0.00,,,-99.99,WeatherLink 5.7,2013-01-20 23:30:00,
2013-01-20 18:45:00,65.3,55.7,29.99,North,0,0.0,4.0,71,0.00,,,-99.99,WeatherLink 5.7,2013-01-20 23:45:00,
2013-01-20 19:00:00,64.9,55.3,29.99,North,0,0.0,5.0,71,0.00,,,-99.99,WeatherLink 5.7,2013-01-21 00:00:00,
2013-01-20 19:15:00,64.6,55.0,29.99,North,0,0.0,5.0,71,0.00,,,-99.99,WeatherLink 5.7,2013-01-21 00:15:00,
2013-01-20 19:30:00,64.5,54.5,29.99,North,0,0.0,7.0,70,0.00,,,-99.99,WeatherLink 5.7,2013-01-21 00:30:00,
2013-01-20 19:45:00,64.5,54.1,29.99,North,0,1.0,7.0,69,0.00,,,-99.99,WeatherLink 5.7,2013-01-21 00:45:00,
2013-01-20 20:00:00,64.5,53.7,29.99,North,0,1.0,7.0,68,0.00,,,-99.99,WeatherLink 5.7,2013-01-21 01:00:00,
2013-01-20 20:15:00,64.5,53.7,30.00,North,0,0.0,4.0,68,0.00,,,-99.99,WeatherLink 5.7,2013-01-21 01:15:00,
2013-01-20 20:30:00,64.5,53.7,30.00,North,0,1.0,6.0,68,0.00,,,-99.99,WeatherLink 5.7,2013-01-21 01:30:00,
2013-01-20 20:45:00,64.4,53.6,30.00,North,0,0.0,5.0,68,0.00,,,-99.99,WeatherLink 5.7,2013-01-21 01:45:00,
2013-01-20 21:00:00,64.3,53.5,30.00,North,0,0.0,4.0,68,0.00,,,-99.99,WeatherLink 5.7,2013-01-21 02:00:00,
2013-01-20 21:15:00,64.3,53.5,30.01,North,-999,0.0,0.0,68,0.00,,,-99.99,WeatherLink 5.7,2013-01-21 02:15:00,
2013-01-20 21:30:00,64.3,53.5,30.00,North,-999,0.0,0.0,68,0.00,,,-99.99,WeatherLink 5.7,2013-01-21 02:30:00,
2013-01-20 21:45:00,64.2,53.4,30.00,North,0,0.0,9.0,68,0.00,,,-99.99,WeatherLink 5.7,2013-01-21 02:45:00,
2013-01-20 22:00:00,63.9,53.1,30.01,North,-999,0.0,0.0,68,0.00,,,-99.99,WeatherLink 5.7,2013-01-21 03:00:00,
2013-01-20 22:15:00,63.9,53.1,30.01,North,-999,0.0,0.0,68,0.00,,,-99.99,WeatherLink 5.7,2013-01-21 03:15:00,
2013-01-20 22:30:00,63.8,53.0,30.01,North,-999,0.0,0.0,68,0.00,,,-99.99,WeatherLink 5.7,2013-01-21 03:30:00,
2013-01-20 22:45:00,63.9,53.5,30.01,North,-999,0.0,0.0,69,0.00,,,-99.99,WeatherLink 5.7,2013-01-21 03:45:00,
2013-01-20 23:00:00,63.9,53.1,30.00,North,-999,0.0,0.0,68,0.00,,,-99.99,WeatherLink 5.7,2013-01-21 04:00:00,
2013-01-20 23:15:00,63.9,53.5,30.00,North,-999,0.0,0.0,69,0.00,,,-99.99,WeatherLink 5.7,2013-01-21 04:15:00,
2013-01-20 23:30:00,63.7,53.3,30.00,North,-999,0.0,0.0,69,0.00,,,-99.99,WeatherLink 5.7,2013-01-21 04:30:00,
2013-01-20 23:45:00,63.7,53.3,30.00,North,-999,0.0,0.0,69,0.00,,,-99.99,WeatherLink 5.7,2013-01-21 04:45:00,